OpenBCM V1.13 (Linux)

Packet Radio Mailbox

DB0FHN

[JN59NK Nuernberg]

 Login: GUEST





  
I0OJJ  > KEPS     18.11.24 10:24l 370 Lines 17641 Bytes #999 (0) @ AMSAT
BID : ORB24323.1
Read: DJ6UX GUEST
Subj: 2Line Orbital Elements 24323.AMSAT
Path: DB0FHN<DB0FFL<OE5XBL<OE6XPE<DB0ERF<IZ3LSV<I0OJJ
Sent: 241118/0820z @:I0OJJ.ITA.EU [Rome] obcm1.08-6-g5b69
From: I0OJJ @ I0OJJ.ITA.EU (Gustavo)
To:   KEPS @ AMSAT
X-Info: This message was generated automatically


QST de W1STR

AMSAT Orbital Elements for Amateur Satellites in TLE Format
From Orbital Analysis Office
New England Sci-Tech STEM Education Center
Natick, MA November 18, 2024
To all radio amateurs


These element sets describe the orbits of various satellites 
in use by the amateur radio community. For details see:
www.amsat.org/keplerian-elements-formats/

A daily update of element sets is available at:
www.amsat.org/tle/daily-bulletin.txt
or without bulletin text:
www.amsat.org/tle/dailytle.txt


AO-07
1 07530U 74089B   24322.61338000 -.00000033  00000-0  84163-4 0  9990
2 07530 101.9893 318.7577 0012262 150.3846 326.5587 12.53682699288506
UO-11
1 14781U 84021B   24322.75239506  .00002562  00000-0  28458-3 0  9991
2 14781  97.7273 287.7070 0006337 297.4071  62.6500 14.88043197192318
AO-27
1 22825U 93061C   24321.73125860  .00000277  00000-0  12341-3 0  9992
2 22825  98.7689  15.9564 0008304   0.5444 359.5746 14.30656916624697
FO-29
1 24278U 96046B   24322.68895659  .00000032  00000-0  66132-4 0  9994
2 24278  98.5859 237.2401 0350546 150.5403 211.6004 13.53221891395443
NOAA-15
1 25338U 98030A   24322.82604677  .00000315  00000-0  14775-3 0  9990
2 25338  98.5560 346.6736 0009390 231.7772 128.2564 14.26798220379346
GO-32
1 25397U 98043D   24321.76880933  .00000221  00000-0  11584-3 0  9993
2 25397  98.9445 290.9385 0002387  82.4239 277.7210 14.24190646369350
ISS
1 25544U 98067A   24322.09401066  .00019103  00000-0  34302-3 0  9998
2 25544  51.6410 277.8367 0007583 226.0535 235.5529 15.49882713482266
NO-44
1 26931U 01043C   24322.09231359  .00000422  00000-0  18967-3 0  9996
2 26931  67.0504 296.4579 0007263 262.3439  97.6838 14.31499549207991
SO-50
1 27607U 02058C   24322.69885228  .00002593  00000-0  35503-3 0  9996
2 27607  64.5536 109.2671 0031737  33.1527 327.1558 14.80311626179247
CO-55
1 27844U 03031E   24322.53873422  .00000684  00000-0  31890-3 0  9991
2 27844  98.6786 327.4841 0010742  62.9053 297.3220 14.23643991109635
CO-57
1 27848U 03031J   24321.48100132  .00000627  00000-0  29736-3 0  9992
2 27848  98.6815 326.5930 0010740  80.5664 279.6728 14.23029700109242
RS-22
1 27939U 03042A   24322.79905172  .00002305  00000-0  38227-3 0  9997
2 27939  98.3071 121.7367 0010761 297.6585 173.1753 14.71189596130859
NOAA-18
1 28654U 05018A   24322.76261213  .00000360  00000-0  21472-3 0  9998
2 28654  98.8632  38.3770 0013877 351.9082   8.1865 14.13423004  4953
CO-58
1 28895U 05043F   24321.12761785  .00005028  00000-0  85781-3 0  9990
2 28895  98.2224  97.5248 0014394 235.6239 124.3605 14.69355411 16756
CO-65
1 32785U 08021C   24322.15484600  .00006595  00000-0  52967-3 0  9994
2 32785  97.7723 286.7137 0011085 176.9719 183.1573 15.00334921898451
AAUSAT2
1 32788U 08021F   24321.93470055  .00044311  00000-0  13799-2 0  9998
2 32788  97.6044 304.1438 0005976  48.9934 311.1824 15.33127235901683
CO-66
1 32791U 08021J   24322.16880381  .00013315  00000-0  81879-3 0  9990
2 32791  97.7083 293.2306 0006657 124.7757 235.4099 15.10152332899630
RS-30
1 32953U 08025A   24322.78902600  .00000057  00000-0  33544-3 0  9996
2 32953  82.5048 353.9493 0020516 128.4399 231.8526 12.43153379748214
PRISM
1 33493U 09002B   24321.91607175  .00049963  00000-0  14111-2 0  9992
2 33493  98.1814  24.1271 0008114  78.8330 281.3823 15.36171212862344
NOAA-19
1 33591U 09005A   24322.80721462  .00000347  00000-0  20944-3 0  9994
2 33591  99.0281  20.0975 0013291 215.7573 144.2709 14.13201985813329
SRMSAT
1 37841U 11058D   24322.13347487  .00000590  00000-0  17724-3 0  9996
2 37841  19.9730 311.6122 0011629 337.1535  92.9768 14.11285503676411
RS-40
1 38735U 12041C   24322.79970404  .00000030  00000-0  14556-3 0  9994
2 38735  82.4763  74.0972 0016840 242.0674 117.8701 12.42620519558343
ZACUBE-1
1 39417U 13066B   24321.42348661  .00011078  00000-0  10542-2 0  9997
2 39417  97.7544 274.4421 0048521  18.8446 341.4555 14.92696607594260
Delfi-N3xt
1 39428U 13066N   24321.30720898  .00016487  00000-0  18870-2 0  9993
2 39428  97.8356 236.0091 0091996 315.4693  43.9153 14.82988608588776
GOMX-1
1 39430U 13066Q   24322.73396472  .00003155  00000-0  50917-3 0  9998
2 39430  97.7061 187.7855 0137286 123.5165 237.9244 14.65920277585521
LO-74
1 39440U 13066AA  24321.82974485  .00005929  00000-0  64984-3 0  9994
2 39440  97.8284 262.5887 0067594 132.8447 227.8475 14.86436240592186
AO-73
1 39444U 13066AE  24322.38223018  .00010244  00000-0  88323-3 0  9998
2 39444  97.7406 279.0072 0044334 354.4635   5.6090 14.96727335593570
DTUSAT-2
1 40030U 14033W   24322.61535273  .00009862  00000-0  73819-3 0  9999
2 40030  98.0326 279.7244 0012243  40.7851 319.4287 15.02891385566215
EO-80
1 40032U 14033Y   24321.84733885  .00010673  00000-0  79827-3 0  9991
2 40032  98.0178 278.8552 0009076 343.8602  16.2332 15.02926198566084
XW-2C
1 40906U 15049H   24322.82603587  .00087756  00000-0  92244-3 0  9997
2 40906  97.4600 345.4407 0007410  99.8939 260.3157 15.64011314508286
LILACSAT-2
1 40908U 15049K   24322.82381939  .00011585  00000-0  37992-3 0  9999
2 40908  97.5200 333.1607 0011566 157.7444 202.4301 15.31721480506960
XW-2B
1 40911U 15049N   24322.80204229  .01386861  13652-2  13524-2 0  9993
2 40911  97.4403 351.2468 0002187 185.2373 174.8889 16.11882066508591
IO-86
1 40931U 15052B   24321.71040892  .00001648  00000-0  13387-3 0  9997
2 40931   6.0008 342.5235 0012226  85.7998 274.3527 14.78350324494178
ChubuSat-2
1 41338U 16012B   24322.13459127  .00007242  00000-0  40857-3 0  9996
2 41338  30.9982 124.1780 0010624 337.4916  22.5255 15.11717277480733
ChubuSat-3
1 41339U 16012C   24322.74749498  .00006952  00000-0  40261-3 0  9993
2 41339  31.0054 119.8954 0010798 345.8706  14.1629 15.10762129480795
Horyu-4
1 41340U 16012D   24321.65035726  .00023126  00000-0  91429-3 0  9990
2 41340  31.0020  56.9630 0009868  94.0537 266.1233 15.24255132481363
Lapan A3
1 41603U 16040E   24322.79551099  .00004609  00000-0  17444-3 0  9995
2 41603  97.1394 329.7445 0009581 277.7463  82.2688 15.27364313466658
Pratham
1 41783U 16059A   24321.28124616  .00001691  00000-0  31739-3 0  9999
2 41783  97.8306 333.5067 0030604 257.3605 102.4176 14.65654817434814
CAS-2T
1 41847U 16066G   24321.78123675  .00002156  00000-0  31627-3 0  9990
2 41847  98.4457  31.9295 0351123  77.4882 286.5345 14.42408365421482
CAS-4B
1 42759U 17034B   24322.78212472  .00033244  00000-0  83978-3 0  9992
2 42759  43.0149  72.5955 0014650 312.9619  47.0008 15.39107374410970
CAS-4A
1 42761U 17034D   24322.76751886  .00033169  00000-0  83004-3 0  9996
2 42761  43.0189  70.8697 0015161 321.5830  38.3946 15.39387989410987
D-SAT
1 42794U 17036AF  24322.17109878  .00011773  00000-0  74137-3 0  9991
2 42794  97.4927 298.8901 0102204 348.9800  10.9187 15.05012522403729
TechnoSat
1 42829U 17042E   24322.51880927  .00005019  00000-0  41788-3 0  9998
2 42829  97.3897 135.2969 0010274 281.3224  78.6845 14.99041106400121
AO-91
1 43017U 17073E   24321.59591553  .00014193  00000-0  79182-3 0  9995
2 43017  97.5488 191.9640 0196535 141.5509 219.9908 14.98627857378443
S-Net D
1 43186U 18014G   24321.67342153  .00009523  00000-0  62314-3 0  9997
2 43186  97.5767 221.0009 0008792 197.2111 162.8821 15.07941935371459
S-Net B
1 43187U 18014H   24321.67662701  .00009582  00000-0  62710-3 0  9997
2 43187  97.5770 220.9645 0009725 193.0452 167.0526 15.07928039371456
S-Net A
1 43188U 18014J   24321.67438222  .00009529  00000-0  62335-3 0  9991
2 43188  97.5778 221.0884 0009590 193.5803 166.5169 15.07944897371454
S-Net C
1 43189U 18014K   24322.14314710  .00007940  00000-0  52014-3 0  9998
2 43189  97.5792 221.5285 0011516 185.8119 174.2978 15.07932966370071
Ten-Koh
1 43677U 18084G   24321.40837669  .00006088  00000-0  51670-3 0  9997
2 43677  98.0812 119.8198 0011922 229.0062 131.0129 14.98256489329490
PO-101
1 43678U 18084H   24322.79057641  .00002805  00000-0  25142-3 0  9993
2 43678  98.0857 125.5936 0008000 239.1542 120.8891 14.96630615329882
QO-100
1 43700U 18090A   24322.79882271  .00000149  00000-0  00000+0 0  9992
2 43700   0.0156 315.4287 0002259 320.8076  94.4538  1.00271223 22142
MinXSS-2
1 43758U 18099A   24321.72238642  .00019397  00000-0  10117-2 0  9991
2 43758  97.5343  22.2120 0014899 149.7173 210.4924 15.15898781325838
AO-95
1 43770U 18099N   24321.39795305  .00014002  00000-0  84346-3 0  9996
2 43770  97.5249  16.2915 0011934 196.7242 163.3596 15.10844789325507
RANGE-B
1 43772U 18099Q   24321.67604940  .00022176  00000-0  10902-2 0  9990
2 43772  97.5040  20.8477 0005208  99.8813 260.3009 15.18032173325787
RANGE-A
1 43773U 18099R   24322.68674854  .00007328  00000-0  51200-3 0  9993
2 43773  97.4813  11.1066 0012518 165.1145 195.0453 15.05550519325501
MOVE-II
1 43780U 18099Y   24321.73739231  .00046322  00000-0  15818-2 0  9998
2 43780  97.5003  24.4205 0004915 160.0118 200.1316 15.30152944326122
SNUSat 2
1 43782U 18099AA  24321.66024559  .00011142  00000-0  70204-3 0  9995
2 43782  97.4931  14.8112 0014319 137.1117 223.1231 15.09233277325536
SnugLite
1 43784U 18099AC  24321.66678825  .00013276  00000-0  79504-3 0  9990
2 43784  97.4745  14.1212 0004861 133.7155 226.4479 15.11117312325624
ITASat 1
1 43786U 18099AE  24321.68440352  .00010348  00000-0  66992-3 0  9990
2 43786  97.4904  14.8431 0015654 186.6910 173.4112 15.08241599325526
EAGLET 1
1 43790U 18099AJ  24322.11846679  .00006399  00000-0  44482-3 0  9997
2 43790  97.5082  15.6924 0013268 164.7929 195.3699 15.05783195325265
ESEO
1 43792U 18099AL  24322.66983716  .00003012  00000-0  23940-3 0  9998
2 43792  97.4881  11.9433 0009280 122.8329 237.3790 15.01137775325212
